Location: Newark
(43.0000°N, 1.6781°W)
Time: 01:36:04
(UTC+00:00)

Vanguard 1 Rocket - Pass Details

Date: 20 April 2021
Orbit: 652 x 4224 km, 34.3° (Epoch: 06 May)

Event Time Altitude Azimuth Distance (km) Brightness Sun altitude
Rises 17:24:18 0° 260° (W) 2,963 11.7 15.5°
Reaches altitude 10° 17:26:57 10° 242° (WSW) 2,073 10.5 15.0°
Maximum altitude 17:30:19 21° 193° (SSW) 1,625 8.9 14.4°
Drops below altitude 10° 17:34:24 10° 145° (SE) 2,566 9.4 13.7°
Sets 17:38:11 0° 131° (SE) 3,940 10.2 13.0°
